Погода в Краснозатонском

Россия / Республика Коми     61°40′41″N   50°59′17″E
темп.,
°C
ветер,
м/с
пор.,
м/с
влажн.,
%
обл.,
%
осадки,
мм/ч
давл.,
гПа
погр.,
м
24 мая, вт
вт2400:00−2в009986 0.0 100011
03:00−3всв119993 0.0 100227
06:00+3в359086 0.0 1003463
09:00+3вюв2696100 0.3 1004525
12:00+5в2585100 0.2 1006710
15:00+6вюв2482100 1.6 1007729
18:00+6ююв2287100 0.5 1008574
21:00+2вюв249620 3.2 1009122
25 мая, ср
ср2500:000в269896 0.0 1010133
03:00+2всв41097100 0.8 1009466
06:00+4в4897100 2.5 1009613
09:00+6вюв3588100 3.4 1010707
12:00+6ю129397 1.9 1010226
15:00+9зюз1181100 1.9 1008518
18:00+9сз2487100 0.1 1008443
21:00+7сз269699 0.1 1007209
26 мая, чт
чт2600:00+6ссз2399100 0.0 100586
03:00+6ссз1199100 0.1 100347
06:00+7с1198100 0.1 100275
09:00+7в1599100 2.4 1000304
12:00+6ююв5790100 2.2 1001677
15:00+5ююв4790100 2.3 1001725
18:00+5ююз61195100 1.2 1003947
21:00+5ююз5129381 2.8 1005673
27 мая, пт
пт2700:00+4ю41095100 0.0 1006377
03:00+3ю399497 0.0 1007292
06:00+6ю368391 0.0 1007354
09:00+11ю3554100 0.0 10071521
12:00+10ю365697 0.0 10071348
15:00+12ююв3653100 0.0 10061589
18:00+10вюв376848 0.0 1006431
21:00+7вюв26885 0.0 1006119
28 мая, сб
сб2800:00+5вюв27907 0.0 1005130
03:00+4в389381 0.0 1004169
06:00+9в31081100 0.0 1003400
09:00+9в4991100 0.3 1002470
12:00+9вюв4995100 0.3 1002500
15:00+11юв3893100 0.3 1002489
18:00+13юв488398 0.3 1000745
21:00+10юв3996100 2.3 999573